Regional Weather Roundup
Issued by NWS Sterling, VA

Home | Current Version | Previous Version | Text Only | Print | Product List | Glossary Off
Versions: 1 2 3 4 5 6 7 8 9 10 11 12 13 14 15 16 17 18 19 20 21 22 23 24 25 26 27 28 29 30 31 32 33 34 35 36 37 38 39 40 41 42 43 44 45 46 47 48 49 50

000
ASUS41 KLWX 300810
RWRLWX

REGIONAL WEATHER ROUNDUP
NATIONAL WEATHER SERVICE BALTIMORE MD/WASHINGTON DC
400 AM EDT SAT AUG 30 2014

Note: "FAIR" indicates few or no clouds below 12,000 feet
with no significant weather and/or obstructions to visibility.
 TC=TEMPERATURE CELSIUS

 * =Non NWS site. Station does not report precipitation (e.g. rain,
    snow, etc.), thunder, or fog.

DCZ001-MDZ009-015-VAZ040>042-051-053>054-300900-
WASHINGTON METRO

CITY           SKY/WX    TMP DP  RH WIND       PRES   REMARKS
WASHINGTON NAT MOCLDY    71  62  73 S6        30.21F
DULLES         CLOUDY    67  62  84 SE5       30.21F
ANDREWS AFB    MOCLDY    64  62  96 S3        30.21F
QUANTICO       CLOUDY    71  63  75 S12       30.21F
COLLEGE PARK*  MOCLDY    66  63  88 CALM      30.21F
LEESBURG*      CLOUDY    68  63  83 CALM      30.22F
MANASSAS*      CLOUDY    66  66 100 CALM      30.21F
GAITHERSBURG*  CLOUDY    64  59  82 CALM      30.26S

$$

MDZ006>007-011-014-300900-
BALTIMORE METRO

CITY           SKY/WX    TMP DP  RH WIND       PRES   REMARKS
BWI AIRPORT    PTCLDY    64  61  90 CALM      30.22S
MD SCIENCE CTR   N/A     71  62  73 MISG      30.22F
MARTIN STATE   CLEAR     70  64  83 E5        30.23F
ANNAPOLIS      CLEAR     70  62  76 SE8       30.21S
FORT MEADE*    PTCLDY    59  55  88 CALM      30.24S

$$

MDZ012-015-019>023-300900-
MARYLAND EASTERN SHORE

CITY           SKY/WX    TMP DP  RH WIND       PRES   REMARKS
OCEAN CITY     CLEAR     59  57  93 CALM      30.22S
SALISBURY      PTCLDY    60  55  83 CALM      30.22S
BAY BRIDGE AP*   N/A     68  63  83 E5        30.22S
CAMBRIDGE*     PTCLDY    61  59  94 CALM      30.22R
EASTON*        CLEAR     63  63 100 CALM      30.26R

$$

MDZ017>025-300900-
SOUTHERN MARYLAND

CITY           SKY/WX    TMP DP  RH WIND       PRES   REMARKS
PATUXENT RIVER MOCLDY    67  61  81 S5        30.21S
ST INIGOES     PTCLDY    66  60  81 CALM      30.20F
LEONARDTOWN*   PTCLDY    64  59  82 CALM      30.22S

$$

MDZ003>005-300900-
NORTH CENTRAL MARYLAND

CITY           SKY/WX    TMP DP  RH WIND       PRES   REMARKS
FREDERICK*     CLOUDY    63  63 100 CALM      30.24S
HAGERSTOWN APT CLOUDY    66  57  72 CALM      30.20F
WESTMINSTER*   PTCLDY    63  61  94 CALM      30.22F

$$

MDZ501>502-300900-
WESTERN MARYLAND

CITY           SKY/WX    TMP DP  RH WIND       PRES   REMARKS
OAKLAND*       CLEAR     59 N/A N/A S8        30.22F
CUMBERLAND*    CLEAR     61  55  82 CALM      30.22S

$$

VAZ025>031-300900-
SHENANDOAH VALLEY

CITY           SKY/WX    TMP DP  RH WIND       PRES   REMARKS
WINCHESTER*    MOCLDY    66  55  68 CALM      30.19F
STAUNTON*      CLOUDY    68  62  80 CALM      30.22F

$$

WVZ021-048>050-054>055-300900-
EASTERN WEST VIRGINIA PANHANDLE

CITY           SKY/WX    TMP DP  RH WIND       PRES   REMARKS
MARTINSBURG    CLOUDY    65  56  72 E3        30.20F
PETERSBURG*    NOT AVBL

$$

VAZ036>039-050-300900-
CENTRAL FOOTHILLS

CITY           SKY/WX    TMP DP  RH WIND       PRES   REMARKS
CHARLOTTESVILL CLOUDY    69  61  75 NE5       30.20F
ORANGE*        CLOUDY    66  61  82 E3        30.22F

$$

VAZ055>057-300900-
NORTH AND CENTRAL PIEDMONT

CITY           SKY/WX    TMP DP  RH WIND       PRES   REMARKS
FREDERICKSBRG* CLOUDY    67  62  86 CALM      30.20F
STAFFORD*      CLOUDY    63  63 100 CALM      30.25S

$$

NCZ024-NYZ072-PAZ021-071-VAZ022-071-300900-
OTHER REGIONAL OBSERVATIONS

CITY           SKY/WX    TMP DP  RH WIND       PRES   REMARKS
NEW YORK CITY  CLEAR     67  54  63 CALM      30.28S
PHILADELPHIA   PTCLDY    63  58  83 CALM      30.25S
PITTSBURGH     PTCLDY    63  58  83 CALM      30.10F
ROANOKE        MOCLDY    72  68  87 E7        30.22F
RICHMOND       CLOUDY    70  63  78 E5        30.20F
RALEIGH        CLOUDY    73  68  84 SE3       30.19R

$$

ANZ530>537-300900-
MARINE OBSERVATIONS

STATION/POSITION TIME  TEMP    WIND        PRES
                       AIR SEA DIR/SP/G
                 (UTC) (F)     (DEG/KT/KT) (MB)
THOMAS PT LIGHT  0800   70 77  150/  9/ 10 1024.1S
BALT KEY BRIDGE  0800   77     140/  7/  9 1023.1S
COVE POINT       0800   72     140/  9/ 12 1022.9F
LEWISETTA        0800   72 78  150/  4/  5 1022.5S
SOLOMONS ISLAND  0800      79                N/A
PINEY POINT      0800          160/  9/ 10   N/A

$$




USA.gov is the U.S. government's official web portal to all federal, state and local government web resources and services.